Location: Kosice
(0.0000°N, 21.2500°E)
Time: 05:51:41
(UTC+01:00)

SWARM A - Pass Details

Date: 24 January 2021
Orbit: 428 x 433 km, 87.4° (Epoch: 04 March)

Event Time Altitude Azimuth Distance (km) Brightness Sun altitude
Rises 18:37:18 0° 182° (S) 2,401 8.3 -11.8°
Reaches altitude 10° 18:39:20 10° 184° (S) 1,532 7.3 -12.3°
Maximum altitude 18:42:38 74° 269° (W) 453 4.4 -13.1°
Drops below altitude 10° 18:45:56 10° 354° (N) 1,527 6.8 -13.9°
Sets 18:47:58 0° 356° (N) 2,391 7.8 -14.3°
